EW9033 Weather Reports


time (UTC)temp
C
wind
direction
speed
KPH
gust
KPH
rain 1hr
cm
rain 24hr
cm
rain mn
cm
humidity
%
barometer
mb
20260504031013 7 190 0.0 0.0 0.00 0.23 0.23 62 1012.6
20260504030512 7 190 0.0 0.0 0.00 0.23 0.23 61 1012.7
20260504030030 7 190 0.0 0.0 0.00 0.23 0.23 60 1012.7
20260504025512 7 190 0.0 1.6 0.00 0.23 0.23 60 1012.7
20260504025011 7 190 0.0 1.6 0.00 0.23 0.23 60 1012.7
20260504024526 7 190 0.0 0.0 0.00 0.23 0.23 60 1012.8
20260504024008 8 190 0.0 0.0 0.00 0.23 0.23 59 1012.8
20260504023507 8 190 0.0 0.0 0.00 0.23 0.23 57 1012.9
20260504023028 8 190 0.0 1.6 0.00 0.23 0.23 56 1012.9
20260504022508 8 190 0.0 3.2 0.00 0.23 0.23 56 1012.9
20260504022011 8 190 0.0 3.2 0.00 0.23 0.23 55 1012.9
20260504021527 9 190 0.0 1.6 0.00 0.23 0.23 55 1012.8
20260504021007 9 190 0.0 3.2 0.00 0.23 0.23 53 1012.8
20260504020508 9 190 1.6 3.2 0.00 0.23 0.23 54 1012.8
20260504020028 10 188 1.6 4.8 0.00 0.23 0.23 53 1012.8
20260504015507 10 178 1.6 4.8 0.00 0.23 0.23 52 1012.9
20260504015009 10 192 1.6 3.2 0.00 0.23 0.23 51 1012.9
20260504014537 10 195 0.0 3.2 0.00 0.23 0.23 50 1012.9
20260504014010 10 198 0.0 3.2 0.00 0.23 0.23 49 1012.9
20260504013510 10 198 0.0 3.2 0.00 0.23 0.23 48 1012.8
20260504013029 11 211 0.0 4.8 0.00 0.23 0.23 48 1012.8
20260504012507 11 211 1.6 8.0 0.00 0.23 0.23 47 1012.8
20260504012007 11 209 1.6 8.0 0.00 0.23 0.23 45 1012.7
20260504011529 11 239 0.0 6.4 0.00 0.23 0.23 45 1012.7
20260504011007 11 216 1.6 8.0 0.00 0.23 0.23 45 1012.8
20260504010509 11 217 1.6 8.0 0.00 0.23 0.23 45 1012.8
20260504010028 11 202 3.2 8.0 0.00 0.23 0.23 45 1012.8
20260504005508 11 210 3.2 9.7 0.00 0.23 0.23 45 1012.8
20260504005011 11 166 3.2 9.7 0.00 0.23 0.23 44 1012.9
20260504004528 12 267 0.0 6.4 0.00 0.23 0.23 44 1012.8
20260504004008 12 213 0.0 11.3 0.00 0.23 0.23 43 1012.7
20260504003509 12 244 1.6 11.3 0.00 0.23 0.23 43 1012.6
20260504003033 12 255 1.6 11.3 0.00 0.23 0.23 42 1012.6
20260504002510 12 223 1.6 11.3 0.00 0.23 0.23 42 1012.7
20260504002014 12 262 1.6 11.3 0.00 0.23 0.23 42 1012.8
20260504001536 12 232 3.2 12.9 0.00 0.23 0.23 42 1012.8
20260504001007 12 226 1.6 12.9 0.00 0.23 0.23 42 1012.6
20260504000507 12 193 4.8 14.5 0.00 0.23 0.23 41 1012.6
20260504000031 12 171 4.8 14.5 0.00 0.23 0.23 41 1012.6
20260503235508 12 258 1.6 14.5 0.00 0.23 0.23 40 1012.7
20260503235008 12 247 4.8 14.5 0.00 0.23 0.23 41 1012.5
20260503234526 12 232 4.8 16.1 0.00 0.23 0.23 40 1012.5
20260503234012 13 227 6.4 19.3 0.00 0.23 0.23 40 1012.5
20260503233508 13 210 8.0 19.3 0.00 0.23 0.23 40 1012.4
20260503233028 13 218 4.8 12.9 0.00 0.23 0.23 41 1012.5
20260503232510 13 223 1.6 11.3 0.00 0.23 0.23 40 1012.5
20260503232011 13 255 4.8 14.5 0.00 0.23 0.23 39 1012.5
20260503231530 13 250 4.8 14.5 0.00 0.23 0.23 38 1012.5
20260503231010 13 245 6.4 14.5 0.00 0.23 0.23 38 1012.6
20260503230510 13 198 4.8 22.5 0.00 0.23 0.23 38 1012.5
20260503230028 13 277 4.8 20.9 0.00 0.23 0.23 38 1012.5
20260503225510 13 229 9.7 19.3 0.00 0.23 0.23 38 1012.5
20260503225009 13 277 8.0 19.3 0.00 0.23 0.23 38 1012.5
20260503224527 13 251 9.7 19.3 0.00 0.23 0.23 37 1012.6
20260503224008 13 250 6.4 27.4 0.00 0.23 0.23 37 1012.6
20260503223512 13 215 8.0 27.4 0.00 0.23 0.23 36 1012.6
20260503223026 14 336 8.0 22.5 0.00 0.23 0.23 36 1012.6
20260503222508 14 263 4.8 16.1 0.00 0.23 0.23 37 1012.7
20260503222007 13 263 6.4 20.9 0.00 0.23 0.23 36 1012.6
20260503221527 13 251 8.0 20.9 0.00 0.23 0.23 36 1012.8
20260503221012 13 260 6.4 17.7 0.00 0.23 0.23 36 1012.7
20260503220509 14 193 6.4 19.3 0.00 0.23 0.23 35 1012.8
20260503220028 14 241 4.8 22.5 0.00 0.23 0.23 36 1012.7
20260503215510 14 281 6.4 22.5 0.00 0.23 0.23 38 1012.6
20260503215013 14 204 9.7 16.1 0.00 0.23 0.23 37 1012.5
20260503214528 14 165 4.8 17.7 0.00 0.23 0.23 37 1012.5
20260503214009 14 306 4.8 29.0 0.00 0.23 0.23 36 1012.6
20260503213510 15 227 12.9 29.0 0.00 0.23 0.23 34 1012.5
20260503213026 14 271 11.3 22.5 0.00 0.23 0.23 36 1012.5
20260503212510 13 213 6.4 16.1 0.00 0.23 0.23 37 1012.5
20260503212011 13 234 6.4 22.5 0.00 0.23 0.23 38 1012.5
20260503211529 13 254 6.4 22.5 0.00 0.23 0.23 36 1012.5
20260503211007 14 322 8.0 24.1 0.03 0.23 0.23 35 1012.5
20260503210507 13 193 8.0 24.1 0.03 0.23 0.23 37 1012.6
20260503210033 14 207 8.0 20.9 0.03 0.23 0.23 36 1012.7
20260503205509 13 229 4.8 17.7 0.03 0.23 0.23 39 1012.9
20260503205007 13 180 8.0 24.1 0.03 0.23 0.23 37 1012.9
20260503204529 13 259 12.9 25.7 0.03 0.23 0.23 36 1012.9
20260503204017 13 254 9.7 25.7 0.03 0.23 0.23 38 1013.0
20260503203507 13 360 6.4 19.3 0.03 0.23 0.23 39 1013.0
20260503203026 14 277 11.3 20.9 0.03 0.23 0.23 35 1013.0
20260503202511 14 256 11.3 20.9 0.03 0.23 0.23 36 1013.2
20260503202013 13 214 9.7 22.5 0.03 0.23 0.23 36 1013.2
20260503201528 13 292 8.0 22.5 0.03 0.23 0.23 36 1013.2
20260503201007 13 288 12.9 22.5 0.00 0.20 0.20 35 1013.3
20260503200510 14 248 9.7 22.5 0.00 0.20 0.20 35 1013.3
20260503200007 14 302 12.9 25.7 0.00 0.20 0.20 35 1013.2
20260503195503 14 244 9.7 25.7 0.00 0.20 0.20 35 1013.3
20260503195003 13 188 8.0 19.3 0.00 0.20 0.20 37 1013.4
20260503194508 13 204 6.4 29.0 0.00 0.20 0.20 35 1013.5
20260503194003 13 300 17.7 29.0 0.00 0.20 0.20 36 1013.6
20260503193503 14 207 6.4 24.1 0.00 0.20 0.20 38 1013.8
20260503193007 15 322 8.0 24.1 0.00 0.20 0.20 40 1013.8
20260503192503 13 188 8.0 24.1 0.00 0.20 0.20 40 1013.8
20260503192003 13 219 6.4 22.5 0.00 0.20 0.20 39 1013.8
20260503191525 13 210 9.7 20.9 0.00 0.20 0.20 41 1013.9
20260503191004 12 228 4.8 20.9 0.00 0.20 0.20 43 1014.0
20260503190504 12 313 9.7 29.0 0.00 0.20 0.20 38 1014.0
20260503190008 13 202 16.1 29.0 0.00 0.20 0.20 40 1014.0
20260503185503 12 245 12.9 22.5 0.00 0.20 0.20 38 1014.2
20260503185004 12 259 9.7 19.3 0.00 0.20 0.20 41 1014.2
20260503184506 12 199 9.7 22.5 0.00 0.20 0.20 39 1014.3
20260503184004 13 284 9.7 30.6 0.00 0.20 0.20 37 1014.3
20260503183503 13 307 12.9 30.6 0.00 0.20 0.20 41 1014.3
20260503183009 12 242 11.3 22.5 0.00 0.20 0.20 39 1014.4
20260503182505 12 225 4.8 22.5 0.00 0.20 0.20 39 1014.5
20260503182003 12 200 8.0 17.7 0.00 0.20 0.20 44 1014.5
20260503181508 12 234 6.4 24.1 0.00 0.20 0.20 40 1014.5
20260503181005 12 271 6.4 24.1 0.00 0.20 0.20 40 1014.5
20260503180507 12 296 6.4 20.9 0.00 0.20 0.20 39 1014.6
20260503180010 12 313 8.0 22.5 0.00 0.20 0.20 39 1014.6
20260503175504 12 256 12.9 27.4 0.00 0.20 0.20 41 1014.8
20260503175004 12 223 12.9 27.4 0.00 0.20 0.20 42 1014.8
20260503174507 12 229 3.2 22.5 0.00 0.20 0.20 45 1014.9
20260503174006 12 271 4.8 27.4 0.00 0.20 0.20 42 1015.0
20260503173503 12 268 9.7 27.4 0.00 0.20 0.20 41 1015.2
20260503173008 12 283 12.9 25.7 0.00 0.20 0.20 38 1015.0
20260503172505 12 5 11.3 22.5 0.00 0.20 0.20 39 1015.1
20260503172003 11 290 3.2 22.5 0.03 0.20 0.20 41 1015.3
20260503171508 11 162 11.3 29.0 0.03 0.20 0.20 41 1015.4
20260503171003 11 170 9.7 29.0 0.03 0.20 0.20 40 1015.4
20260503170504 11 284 9.7 24.1 0.03 0.20 0.20 41 1015.5
20260503150503 9 209 8.0 20.9 0.03 0.18 0.18 44 1016.4
20260503131005 5 216 3.2 12.9 0.08 0.10 0.10 74 1017.0
20260503110504 -1 343 0.0 0.0 0.00 0.00 0.00 94 1016.0
20260503090504 -1 343 0.0 0.0 0.00 0.00 0.00 93 1015.4
20260503081523 -1 343 0.0 0.0 0.00 0.00 0.00 92 1015.5
20260503081007 0 343 0.0 0.0 0.00 0.00 0.00 92 1015.4
20260503080507 0 343 0.0 0.0 0.00 0.00 0.00 92 1015.4
20260503072505 0 343 0.0 0.0 0.00 0.00 0.00 92 1015.2
20260503072013 0 343 0.0 0.0 0.00 0.00 0.00 92 1015.3
20260503071518 0 343 0.0 0.0 0.00 0.00 0.00 92 1015.2
20260503071005 0 343 0.0 0.0 0.00 0.00 0.00 92 1015.3
20260503070507 0 343 0.0 0.0 0.00 0.00 0.00 92 1015.3
20260503055009 0 343 0.0 0.0 0.00 0.00 0.00 91 1015.4
20260503054520 0 343 0.0 0.0 0.00 0.00 0.00 91 1015.4
20260503054006 0 343 0.0 0.0 0.00 0.00 0.00 91 1015.5
20260503053508 0 343 0.0 0.0 0.00 0.00 0.00 91 1015.5
20260503053023 0 343 0.0 0.0 0.00 0.00 0.00 91 1015.6
20260503052002 0 343 0.0 0.0 0.00 0.00 0.00 90 1015.6
20260503051511 0 343 0.0 0.0 0.00 0.00 0.00 90 1015.6
20260503045004 0 343 0.0 0.0 0.00 0.00 0.00 90 1015.7
20260503044508 0 343 0.0 0.0 0.00 0.00 0.00 90 1015.7
20260503044003 0 343 0.0 0.0 0.00 0.00 0.00 90 1015.7
20260503043502 0 343 0.0 0.0 0.00 0.00 0.00 90 1015.7
20260503043029 0 343 0.0 0.0 0.00 0.00 0.00 89 1015.8
20260503042506 0 343 0.0 0.0 0.00 0.00 0.00 89 1015.8
20260503042003 0 343 0.0 0.0 0.00 0.00 0.00 88 1015.8
20260503041507 0 343 0.0 0.0 0.00 0.00 0.00 88 1015.8
20260503041007 0 343 0.0 0.0 0.00 0.00 0.00 88 1015.9
20260503040504 0 343 0.0 0.0 0.00 0.00 0.00 88 1015.8
20260503040008 0 343 0.0 0.0 0.00 0.00 0.00 88 1015.8
20260503035003 0 343 0.0 0.0 0.00 0.00 0.00 87 1015.9
20260503034003 1 343 0.0 0.0 0.00 0.00 0.00 86 1015.8
20260503033504 1 343 0.0 0.0 0.00 0.00 0.00 86 1015.8
20260503033016 1 343 0.0 0.0 0.00 0.00 0.00 85 1015.8
20260503032504 1 343 0.0 0.0 0.00 0.00 0.00 85 1015.8
20260503032002 1 343 0.0 0.0 0.00 0.00 0.00 84 1015.8
20260503031508 1 343 0.0 0.0 0.00 0.00 0.00 84 1015.8